WetterOnline ( http://www.wetteronline.de )

Wetter aktuell Bad Bramstedt

Aktuelles Wetter: Quickborn (17m)

6-stündlich | Neueste Meldungen
Ortszeit Temperatur Wetter
Mo, 25.06. 14:00 16.8° C bedeckt
Mo, 25.06. 8:00 14.2° C bedeckt
Mo, 25.06. 2:00 12.4° C bedeckt
So, 24.06. 20:00 14.5° C bedeckt
So, 24.06. 14:00 15.0° C bedeckt
So, 24.06. 8:00 12.9° C bedeckt
So, 24.06. 2:00 12.0° C bedeckt
Sa, 23.06. 20:00 12.4° C Sprühregen
Ortszeit Temperatur Wetter
Mo, 25.06. 16:00 15.7° C bedeckt
Mo, 25.06. 15:50 15.7° C bedeckt
Mo, 25.06. 15:40 16.2° C bewölkt
Mo, 25.06. 15:30 17.8° C bewölkt
Mo, 25.06. 15:20 17.8° C bewölkt
Mo, 25.06. 15:10 17.0° C bedeckt
Mo, 25.06. 15:00 17.3° C bedeckt
Mo, 25.06. 14:30 16.7° C bewölkt
Mo, 25.06. 14:00 16.8° C bedeckt
Mo, 25.06. 13:30 16.3° C bedeckt
Mo, 25.06. 13:00 16.1° C bedeckt
Ortszeit Relative Feuchte Sichtweite
Mo, 25.06. 14:00 72% 13 km
Mo, 25.06. 8:00 90% 18 km
Mo, 25.06. 2:00 94% 19 km
So, 24.06. 20:00 80% 30 km
So, 24.06. 14:00 79% 35 km
So, 24.06. 8:00 89% 21 km
So, 24.06. 2:00 86% 21 km
Sa, 23.06. 20:00 95% 4.4 km
Ortszeit Relative Feuchte Sichtweite
Mo, 25.06. 16:00 77% 18 km
Mo, 25.06. 15:50 77% -
Mo, 25.06. 15:40 76% -
Mo, 25.06. 15:30 70% 13 km
Mo, 25.06. 15:20 70% -
Mo, 25.06. 15:10 69% -
Mo, 25.06. 15:00 70% 11 km
Mo, 25.06. 14:30 72% 14 km
Mo, 25.06. 14:00 72% 13 km
Mo, 25.06. 13:30 76% 19 km
Mo, 25.06. 13:00 78% 16 km
Ortszeit Niederschlagsmenge Niederschlagsart
Mo, 25.06. 14:00 0.1 l/m2 in 6 Std. Regen
Mo, 25.06. 8:00 0.0 l/m2 in 12 Std. -
Mo, 25.06. 2:00 0.0 l/m2 in 6 Std. -
So, 24.06. 20:00 0.1 l/m2 in 12 Std. Regen
So, 24.06. 14:00 0.1 l/m2 in 6 Std. Regen
So, 24.06. 8:00 1 l/m2 in 12 Std. Regen
So, 24.06. 2:00 0.6 l/m2 in 6 Std. Regen
Sa, 23.06. 20:00 1 l/m2 in 12 Std. Regen
Ortszeit Niederschlagsmenge Niederschlagsart
Mo, 25.06. 16:00 0.0 l/m2 in 1 Std. -
Mo, 25.06. 15:50 keine Meldung -
Mo, 25.06. 15:40 keine Meldung -
Mo, 25.06. 15:30 0.0 l/m2 in 1 Std. -
Mo, 25.06. 15:20 keine Meldung -
Mo, 25.06. 15:10 keine Meldung -
Mo, 25.06. 15:00 0.0 l/m2 in 1 Std. -
Mo, 25.06. 14:30 0.0 l/m2 in 1 Std. -
Mo, 25.06. 14:00 0.0 l/m2 in 1 Std. Regen
Mo, 25.06. 13:30 0.0 l/m2 in 1 Std. -
Mo, 25.06. 13:00 0.0 l/m2 in 1 Std. -
Ortszeit Stärke Spitze Richtung
km/h Bft. km/h Grad Sektor
Mo, 25.06. 14:00 20 4 35 280° W
Mo, 25.06. 8:00 11 2 18 280° W
Mo, 25.06. 2:00 7 2 22 310° NW
So, 24.06. 20:00 13 3 39 300° NW
So, 24.06. 14:00 24 4 37 290° W
So, 24.06. 8:00 11 2 29 300° NW
So, 24.06. 2:00 13 3 35 290° W
Sa, 23.06. 20:00 18 3 47 290° W
Ortszeit Stärke Spitze Richtung
km/h Bft. km/h Grad Sektor
Mo, 25.06. 16:00 19 3 39 300° NW
Mo, 25.06. 15:50 19 3 - 300° NW
Mo, 25.06. 15:40 22 4 - 290° W
Mo, 25.06. 15:30 24 4 39 280° W
Mo, 25.06. 15:20 24 4 - 280° W
Mo, 25.06. 15:10 22 4 - 290° W
Mo, 25.06. 15:00 22 4 40 280° W
Mo, 25.06. 14:30 24 4 33 270° W
Mo, 25.06. 14:00 20 4 35 280° W
Mo, 25.06. 13:30 20 4 33 280° W
Mo, 25.06. 13:00 18 3 32 280° W
Ortszeit Untergrenze Bedeckung Gattung
total tief tief mittel hoch
Mo, 25.06. 14:00 600 m 8/8 8/8 - - -
Mo, 25.06. 8:00 300 m 8/8 8/8 - - -
Mo, 25.06. 2:00 300 m 8/8 8/8 - - -
So, 24.06. 20:00 600 m 8/8 8/8 - - -
So, 24.06. 14:00 450 m 8/8 8/8 - - -
So, 24.06. 8:00 360 m 8/8 8/8 - - -
So, 24.06. 2:00 450 m 8/8 8/8 - - -
Sa, 23.06. 20:00 30 m 7/8 7/8 - - -
Ortszeit Bedeckungsgrad in Achtel und Wolkenuntergrenze
Mo, 25.06. 16:00 7(570m) 8(750m)
Mo, 25.06. 15:50 7(570m) 8(750m)
Mo, 25.06. 15:40 5(600m) 7(750m)
Mo, 25.06. 15:30 6(750m) 7(870m)
Mo, 25.06. 15:20 6(750m) 7(870m)
Mo, 25.06. 15:10 9 9 9
Mo, 25.06. 15:00 7(690m) 8(810m) 8(3300m)
Mo, 25.06. 14:30 7(600m) 8(3000m) 8(3900m)
Mo, 25.06. 14:00 7(600m) 8(2700m) 8(3900m)
Mo, 25.06. 13:30 8(570m) 8(2700m)
Mo, 25.06. 13:00 8(510m)
Ortszeit Luftdruck NN (hPa) Tendenz (hPa in 3 Std.)
Mo, 25.06. 14:00 1022 + 0,5
Mo, 25.06. 8:00 1020 + 0,6
Mo, 25.06. 2:00 1020 + 0,4
So, 24.06. 20:00 1019 0,0
So, 24.06. 14:00 1019 - 0,2
So, 24.06. 8:00 1020 + 0,1
So, 24.06. 2:00 1021 - 0,7
Sa, 23.06. 20:00 1021 - 0,4
Ortszeit Luftdruck NN (hPa) Tendenz (hPa in 3 Std.)
Mo, 25.06. 16:00 1022 + 0,6
Mo, 25.06. 15:50 1022 keine Meldung
Mo, 25.06. 15:40 1022 keine Meldung
Mo, 25.06. 15:30 1022 + 0,4
Mo, 25.06. 15:20 1022 keine Meldung
Mo, 25.06. 15:10 1022 keine Meldung
Mo, 25.06. 15:00 1022 + 0,2
Mo, 25.06. 14:30 1022 + 0,3
Mo, 25.06. 14:00 1022 + 0,5
Mo, 25.06. 13:30 1022 + 0,6
Mo, 25.06. 13:00 1022 + 0,9
Ortszeit Schneehöhe (cm)
Mo, 25.06. 14:00 -
Mo, 25.06. 8:00 -
Mo, 25.06. 2:00 -
So, 24.06. 20:00 -
So, 24.06. 14:00 -
So, 24.06. 8:00 -
So, 24.06. 2:00 -
Sa, 23.06. 20:00 -
Ortszeit Schneehöhe (cm)
Mo, 25.06. 16:00 -
Mo, 25.06. 15:50 -
Mo, 25.06. 15:40 -
Mo, 25.06. 15:30 -
Mo, 25.06. 15:20 -
Mo, 25.06. 15:10 -
Mo, 25.06. 15:00 -
Mo, 25.06. 14:30 -
Mo, 25.06. 14:00 -
Mo, 25.06. 13:30 -
Mo, 25.06. 13:00 -
Link zu dieser Seite / Seite empfehlen

Das Wetter in ...